Simultaneous Nadir Overpasses (SNOs) Predictions

Prediction of SNOs between GOES-17 and METOP-B Satellite Orbit:

Table of predicted SNOs for the next 14.0 days since TLE Epoch: 12/26/2020
Index Date Time (GOES-17) GOES-17 Lat,Lon METOP-B Lat,Lon Distance(km) Time Diff (sec)
1 12/26/2020 06:51:05 0.02,-137.22 -0.57,-139.77 291.07 80
2 12/27/2020 06:27:47 0.02,-137.22 0.56,-134.78 277.85 80
3 12/28/2020 18:49:19 -0.02,-137.23 0.47,-139.34 241.75 80
4 12/29/2020 18:28:40 -0.03,-137.23 -0.66,-134.36 326.79 80
5 12/31/2020 06:47:42 0.02,-137.21 -0.38,-138.95 198.72 80
6 01/01/2021 06:24:23 0.02,-137.20 0.74,-133.96 369.36 80
7 01/02/2021 18:43:16 -0.02,-137.20 0.28,-138.52 151.56 80
8 01/03/2021 18:25:17 -0.02,-137.19 -0.85,-133.54 416.27 80
9 01/05/2021 06:44:18 0.02,-137.16 -0.19,-138.13 110.23 80
10 01/06/2021 06:21:00 0.02,-137.15 0.94,-133.14 457.21 80
11 01/07/2021 18:39:51 -0.02,-137.13 0.13,-137.69 64.83 80
